Track LANDSAT 5 now! 10-day predictions LANDSAT 5 is classified as:
1 14780U 84021A 24325.64024451 .00005997 00000-0 46030-3 0 9993 2 14780 98.0990 209.5817 0073344 236.9386 122.4779 15.00050519705265